Simultaneous Nadir Overpasses (SNOs) Predictions

Prediction of SNOs between GOES-15 and TERRA Satellite Orbit:

Table of predicted SNOs for the next 14.0 days since TLE Epoch: 7/27/2014
Index Date Time (GOES-15) GOES-15 Lat,Lon TERRA Lat,Lon Distance(km) Time Diff (sec)
1 07/28/2014 07:16:00 -0.04,-135.42 0.74,-131.86 406.16 80
2 07/28/2014 19:39:56 0.07,-135.44 0.38,-137.01 178.26 80
3 07/30/2014 19:25:07 0.06,-135.47 -0.22,-134.06 159.61 80
4 07/31/2014 07:49:12 -0.09,-135.47 -0.89,-139.26 430.61 80
5 08/01/2014 19:12:59 0.06,-135.49 -0.87,-131.12 496.91 80
6 08/02/2014 07:37:04 -0.08,-135.49 -0.24,-136.32 93.47 80
7 08/04/2014 07:22:15 -0.08,-135.50 0.35,-133.36 242.93 80
8 08/04/2014 19:46:11 0.11,-135.52 0.76,-138.52 341.91 80
9 08/06/2014 19:34:03 0.10,-135.52 0.11,-135.58 6.68 80
10 08/08/2014 19:19:15 0.10,-135.52 -0.54,-132.64 327.74 80
11 08/09/2014 07:43:19 -0.12,-135.51 -0.62,-137.82 263.51 80




NCC Satellite Simultaneous Nadir Overpasses (SNOs) Prediction Service
